1507834800.31,18992,12.5,73962.3,-1.17,-16.55,-23.23,0,*5B
1507834801.52,18993,12.5,73974.5,-1.17,-17.49,-24.47,0,*53
1507834802.75,18994,12.5,73980.8,-1.17,-18.89,-25.61,0,*52
1507834803.95,18995,12.5,73972.0,-1.17,-20.89,-27.03,0,*5E
1507834805.21,18996,12.5,73960.8,-1.19,-22.77,-26.49,0,*5F
1507834806.44,18997,12.5,73966.3,-1.19,-24.61,-26.03,0,*51
1507834807.69,18998,12.5,73960.8,-1.19,-25.61,-24.87,0,*51
1507834808.98,18999,12.5,73956.0,-1.19,-26.33,-23.19,0,*54
1507834810.19,19000,12.5,73954.5,-1.21,-26.87,-20.43,0,*54
1507834811.43,19001,12.5,73956.8,-1.21,-26.03,-16.09,0,*52
1507834812.7,19002,12.5,73960.0,-1.19,-21.97,-11.81,0,*57
1507834813.91,19003,12.5,73944.8,-1.21,-17.83,-10.09,0,*5C
1507834815.13,19004,12.5,73940.5,-1.19,-13.93,-10.45,0,*5D
1507834816.39,19005,12.5,73950.8,-1.19,-11.41,-12.15,0,*56
1507834817.59,19006,12.5,73952.8,-1.21,-11.01,-13.69,0,*50
1507834818.82,19007,12.5,73962.8,-1.21,-11.63,-13.73,0,*5E
1507834820.03,19008,12.5,73962.3,-1.21,-12.29,-12.47,0,*5A
1507834821.28,19009,12.5,73960.0,-1.23,-12.39,-11.51,0,*5C
1507834822.54,19010,12.5,73964.8,-1.21,-11.51,-10.63,0,*5B
1507834823.8,19011,12.5,73966.0,-1.21,-10.67,-10.41,0,*5E
1507834825.03,19012,12.5,73970.8,-1.19,-9.79,-10.15,0,*60
1507834826.26,19013,12.5,73982.8,-1.21,-9.15,-9.93,0,*56
1507834827.48,19014,12.5,73986.8,-1.19,-8.67,-9.79,0,*5A
1507834828.68,19015,12.5,73992.5,-1.21,-8.85,-9.93,0,*58
1507834829.88,19016,12.5,73990.5,-1.21,-9.23,-9.27,0,*59
1507834831.13,19017,12.5,73988.5,-1.21,-9.41,-8.07,0,*5F
1507834832.35,19018,12.5,73994.5,-1.21,-8.51,-6.73,0,*5D
1507834833.56,19019,12.5,73986.0,-1.19,-6.05,-6.13,0,*5E
1507834834.78,19020,12.5,73978.3,-1.21,-6.01,-6.93,0,*53
1507834836.02,19021,12.5,73960.3,-1.19,-6.05,-7.43,0,*51
1507834837.21,19022,12.5,73944.0,-1.21,-6.43,-8.67,0,*52
1507834838.46,19023,12.5,73922.5,-1.19,-6.51,-9.45,0,*5A
1507834839.69,19024,12.5,73946.5,-1.21,-7.01,-10.35,0,*6D
1507834840.95,19025,12.5,73952.8,-1.19,-7.91,-11.33,0,*69
1507834842.18,19026,12.5,73942.3,-1.19,-10.15,-13.11,0,*52
1507834843.41,19027,12.5,73956.0,-1.21,-10.75,-13.73,0,*5A
1507834844.66,19028,12.5,73958.0,-1.21,-10.79,-15.57,0,*59
1507834845.87,19029,12.5,73970.8,-1.21,-12.03,-17.87,0,*58
1507834847.08,19030,12.5,73972.3,-1.17,-13.55,-20.25,0,*5B
1507834848.34,19031,12.5,73964.8,-1.21,-14.75,-23.23,0,*5F
1507834849.57,19032,12.5,73958.3,-1.21,-17.21,-25.19,0,*51
1507834850.8,19033,12.5,73972.0,-1.21,-19.99,-27.83,0,*5C
1507834852.06,19034,12.5,73958.5,-1.23,-23.13,-29.35,0,*51
1507834853.28,19035,12.5,73962.0,-1.21,-25.65,-30.51,0,*5F
1507834854.52,19036,12.5,73966.3,-1.21,-27.51,-30.77,0,*5D
1507834855.76,19037,12.5,73968.3,-1.21,-28.69,-30.77,0,*58
1507834857.03,19038,12.5,73972.0,-1.21,-29.13,-30.77,0,*5B
1507834858.24,19039,12.5,73966.5,-1.21,-29.61,-30.33,0,*5F
1507834859.48,19040,12.5,73970.5,-1.23,-29.95,-30.33,0,*58
1507834860.71,19041,12.5,73960.5,-1.25,-30.17,-29.83,0,*5E
1507834861.97,19042,12.5,73940.3,-1.23,-30.39,-29.13,0,*5E
1507834863.2,19043,12.5,73926.5,-1.25,-30.17,-27.93,0,*53
1507834864.4,19044,12.5,73940.3,-1.25,-29.45,-27.13,0,*53
1507834865.63,19045,12.5,73948.5,-1.25,-28.97,-26.77,0,*5F
1507834866.86,19046,12.5,73958.8,-1.25,-29.17,-26.39,0,*5F
1507834868.1,19047,12.5,73960.3,-1.25,-29.67,-25.55,0,*50
1507834869.34,19048,12.5,73952.8,-1.27,-29.83,-24.51,0,*52
1507834870.59,19049,12.5,73954.5,-1.27,-29.83,-23.33,0,*50
1507834871.85,19050,12.5,73968.8,-1.27,-29.23,-21.97,0,*5E
1507834873.09,19051,12.5,73968.3,-1.27,-28.53,-20.63,0,*53
1507834874.35,19052,12.5,73970.8,-1.29,-27.35,-19.57,0,*5C
1507834875.61,19053,12.5,73974.3,-1.27,-25.97,-18.21,0,*59
1507834876.89,19054,12.5,73976.3,-1.27,-24.87,-17.59,0,*5E
1507834878.13,19055,12.5,73972.5,-1.29,-24.83,-16.59,0,*54
1507834879.36,19056,12.5,73978.3,-1.29,-23.99,-14.37,0,*51
1507834880.62,19057,12.5,73980.8,-1.29,-21.83,-12.71,0,*5D
1507834881.85,19058,12.5,73982.3,-1.29,-20.39,-12.07,0,*53
1507834883.07,19059,12.5,73978.0,-1.29,-19.13,-10.89,0,*54
1507834884.27,19060,12.5,73972.5,-1.29,-16.89,-9.75,0,*69
1507834885.5,19061,12.5,73970.5,-1.29,-14.79,-10.19,0,*57
1507834886.76,19062,12.5,73958.8,-1.27,-13.07,-11.93,0,*57
1507834887.98,19063,12.5,73954.0,-1.29,-13.07,-13.83,0,*5B
1507834889.19,19064,12.5,73946.8,-1.29,-14.15,-14.69,0,*5B
1507834890.42,19065,12.5,73946.8,-1.29,-15.95,-14.43,0,*5B
1507834891.67,19066,12.5,73950.0,-1.27,-16.89,-13.79,0,*56
1507834892.93,19067,12.5,73952.5,-1.29,-17.07,-12.79,0,*5F
1507834894.18,19068,12.5,73954.8,-1.29,-17.03,-11.29,0,*52
1507834895.42,19069,12.5,73958.5,-1.29,-16.17,-10.27,0,*58
1507834896.68,19070,12.5,73966.8,-1.27,-14.83,-9.67,0,*6D
1507834897.91,19071,12.5,73964.0,-1.27,-12.97,-10.05,0,*53
1507834899.13,19072,12.5,73970.3,-1.29,-11.67,-10.85,0,*5A
1507834900.41,19073,12.5,73970.8,-1.27,-10.75,-11.81,0,*52
1507834901.64,19074,12.5,73982.8,-1.29,-10.49,-13.83,0,*54
1507834902.84,19075,12.5,73988.5,-1.29,-11.11,-16.59,0,*5B
1507834904.04,19076,12.5,74006.0,-1.29,-12.43,-18.69,0,*51
1507834905.29,19077,12.5,74004.0,-1.29,-14.05,-20.63,0,*55
1507834906.52,19078,12.5,74010.0,-1.29,-16.13,-22.57,0,*5A
1507834907.73,19079,12.5,74002.3,-1.29,-18.41,-24.51,0,*52
1507834908.93,19080,12.5,73988.3,-1.29,-21.47,-25.35,0,*5B
1507834910.16,19081,12.5,73974.5,-1.29,-23.19,-24.47,0,*57
1507834911.37,19082,12.5,73964.3,-1.29,-23.89,-23.79,0,*57
1507834912.64,19083,12.5,73960.8,-1.31,-23.85,-24.11,0,*5A
1507834913.92,19084,12.5,73958.8,-1.31,-24.67,-24.71,0,*50
1507834915.13,19085,12.5,73960.0,-1.29,-25.65,-24.77,0,*5D
1507834916.38,19086,12.5,73960.5,-1.29,-26.17,-24.83,0,*53
1507834917.67,19087,12.5,73972.8,-1.31,-26.81,-24.87,0,*50
1507834918.9,19088,12.5,73968.5,-1.29,-26.93,-24.51,0,*5E
1507834920.15,19089,12.5,73972.5,-1.31,-26.87,-24.41,0,*52
1507834921.4,19090,12.5,73974.3,-1.31,-26.97,-23.89,0,*58
1507834922.68,19091,12.5,73972.5,-1.31,-26.97,-23.69,0,*57
1507834923.94,19092,12.5,73974.3,-1.35,-27.03,-23.53,0,*55
1507834925.2,19093,12.5,73968.5,-1.35,-26.97,-23.13,0,*5C
1507834926.45,19094,12.5,73962.5,-1.35,-26.87,-22.73,0,*5D
1507834927.71,19095,12.5,73968.5,-1.39,-26.61,-22.47,0,*5F
1507834928.96,19096,12.5,73978.3,-1.39,-26.13,-22.37,0,*5E
1507834930.22,19097,12.5,73976.5,-1.39,-25.55,-22.37,0,*5E
1507834931.49,19098,12.5,73966.3,-1.39,-24.25,-22.37,0,*57
1507834932.77,19099,12.5,73964.0,-1.39,-22.77,-23.49,0,*5F
1507834934.01,19100,12.5,73970.5,-1.39,-21.93,-26.03,0,*5C
1507834935.29,19101,12.5,73976.3,-1.39,-22.77,-27.45,0,*57
1507834936.53,19102,12.5,73968.5,-1.41,-23.95,-28.15,0,*5C
1507834937.76,19103,12.5,73964.8,-1.41,-24.77,-28.47,0,*51
1507834938.99,19104,12.5,73944.5,-1.41,-25.13,-28.47,0,*55
1507834940.19,19105,12.5,73946.8,-1.41,-25.35,-27.93,0,*56
1507834941.42,19106,12.5,73944.3,-1.41,-25.97,-28.69,0,*57
1507834942.65,19107,12.5,73942.8,-1.41,-27.19,-28.31,0,*5F
1507834943.88,19108,12.5,73936.8,-1.41,-27.61,-27.77,0,*52
1507834945.09,19109,12.5,73936.8,-1.41,-27.77,-27.07,0,*53
1507834946.35,19110,12.5,73934.5,-1.43,-26.81,-26.61,0,*50
1507834947.62,19111,12.5,73938.8,-1.43,-26.61,-27.35,0,*5F
1507834948.85,19112,12.5,73946.8,-1.43,-27.07,-27.93,0,*51
1507834950.09,19113,12.5,73958.3,-1.45,-27.51,-28.21,0,*53
1507834951.37,19114,12.5,73956.8,-1.43,-27.83,-28.47,0,*5D
1507834952.6,19115,12.5,73956.3,-1.45,-28.21,-29.07,0,*58
1507834953.84,19116,12.5,73966.3,-1.45,-28.25,-29.45,0,*59
1507834955.11,19117,12.5,73962.8,-1.43,-28.09,-29.83,0,*5A
1507834956.37,19118,12.5,73954.8,-1.45,-28.21,-30.51,0,*5E
1507834957.61,19119,12.5,73956.8,-1.45,-28.53,-31.11,0,*5F
1507834958.86,19120,12.5,73956.0,-1.45,-28.91,-31.17,0,*5D
1507834960.1,19121,12.5,73954.8,-1.45,-29.35,-31.33,0,*55
1507834961.31,19122,12.5,73952.5,-1.45,-29.61,-31.33,0,*57
1507834962.57,19123,12.5,73934.3,-1.47,-30.01,-31.33,0,*5A
1507834963.83,19124,12.5,73930.3,-1.47,-30.45,-31.23,0,*5C
1507834965.09,19125,12.5,73930.3,-1.47,-30.51,-31.17,0,*5F
1507834966.32,19126,12.5,73910.8,-1.49,-30.67,-31.01,0,*50
1507834967.59,19127,12.5,73910.3,-1.47,-30.73,-30.83,0,*51
1507834968.85,19128,12.5,73926.5,-1.49,-30.67,-30.73,0,*5A
1507834970.13,19129,12.5,73930.8,-1.49,-30.17,-30.55,0,*58
1507834971.4,19130,12.5,73930.8,-1.47,-28.91,-30.11,0,*59
1507834972.65,19131,12.5,73942.8,-1.49,-28.47,-29.83,0,*5E
1507834973.93,19132,12.5,73950.8,-1.49,-28.59,-30.51,0,*55
1507834975.22,19133,12.5,73958.0,-1.49,-28.91,-30.89,0,*55
1507834976.51,19134,12.5,73964.3,-1.49,-28.75,-30.89,0,*58
1507834977.74,19135,12.5,73972.3,-1.49,-29.07,-31.17,0,*5B
1507834978.98,19136,12.5,73966.0,-1.49,-29.45,-31.17,0,*5E
1507834980.22,19137,12.5,73970.0,-1.49,-29.79,-31.17,0,*50
1507834981.47,19138,12.5,73976.5,-1.49,-30.01,-31.17,0,*58
1507834982.72,19139,12.5,73978.8,-1.51,-30.05,-30.95,0,*5F
1507834983.98,19140,12.5,73956.3,-1.51,-29.01,-29.73,0,*5D
1507834985.21,19141,12.5,73940.5,-1.49,-29.07,-29.61,0,*50
1507834986.48,19142,12.5,73960.5,-1.47,-29.67,-30.17,0,*52
1507834987.74,19143,12.5,73962.3,-1.49,-29.67,-30.01,0,*5A
1507834989.0,19144,12.5,73960.5,-1.49,-29.83,-30.01,0,*57
1507834990.24,19145,12.5,73940.0,-1.47,-29.61,-29.67,0,*5C
1507834991.48,19146,12.5,73932.0,-1.49,-29.83,-29.45,0,*5D
1507834992.71,19147,12.5,73914.3,-1.45,-29.89,-29.23,0,*5A
1507834993.93,19148,12.5,73918.5,-1.45,-29.45,-28.85,0,*58
1507834995.19,19149,12.5,73922.0,-1.45,-29.01,-28.75,0,*56
1507834996.43,19150,12.5,73938.0,-1.45,-29.07,-28.91,0,*52
1507834997.64,19151,12.5,73936.5,-1.45,-29.57,-29.07,0,*58
1507834998.88,19152,12.5,73934.5,-1.45,-29.73,-28.85,0,*56
1507835000.14,19153,12.5,73926.8,-1.47,-29.79,-28.59,0,*5E
1507835001.35,19154,12.5,73924.3,-1.45,-29.79,-28.15,0,*53
1507835002.59,19155,12.5,73920.8,-1.45,-29.95,-27.39,0,*51
1507835003.83,19156,12.5,73928.3,-1.45,-29.95,-26.55,0,*59
1507835005.09,19157,12.5,73922.5,-1.47,-29.95,-25.45,0,*58
1507835006.36,19158,12.5,73932.0,-1.47,-29.67,-24.41,0,*5F
1507835007.64,19159,12.5,73952.5,-1.47,-29.13,-23.19,0,*57
1507835008.93,19160,12.5,73954.5,-1.47,-28.75,-21.83,0,*5D
1507835010.18,19161,12.5,73966.8,-1.49,-27.89,-20.19,0,*5C
1507835011.41,19162,12.5,73970.0,-1.49,-26.39,-19.03,0,*54
1507835012.67,19163,12.5,73952.5,-1.47,-24.87,-18.45,0,*5F
1507835013.9,19164,12.5,73952.8,-1.49,-23.43,-18.17,0,*5E
1507835015.18,19165,12.5,73964.3,-1.49,-22.31,-18.01,0,*5C
1507835016.44,19166,12.5,73956.3,-1.47,-21.87,-18.21,0,*5D
1507835017.7,19167,12.5,73950.0,-1.47,-22.21,-18.17,0,*56
1507835018.93,19168,12.5,73954.3,-1.49,-22.53,-16.55,0,*5A
1507835020.19,19169,12.5,73950.3,-1.49,-21.43,-13.33,0,*5C
1507835021.42,19170,12.5,73948.0,-1.49,-18.21,-10.23,0,*58
1507835022.66,19171,12.5,73944.0,-1.49,-15.01,-8.97,0,*60
1507835023.93,19172,12.5,73944.3,-1.47,-12.65,-8.03,0,*65
1507835025.19,19173,12.5,73932.3,-1.47,-11.07,-7.53,0,*69
1507835026.45,19174,12.5,73936.3,-1.49,-9.45,-6.97,0,*56
1507835027.68,19175,12.5,73928.0,-1.49,-8.45,-6.59,0,*54
1507835028.88,19176,12.5,73920.5,-1.45,-7.53,-6.55,0,*5F
1507835030.15,19177,12.5,73930.0,-1.47,-7.31,-7.43,0,*5E
1507835031.4,19178,12.5,73936.3,-1.49,-7.65,-8.37,0,*52
1507835032.64,19179,12.5,73932.5,-1.47,-8.03,-9.31,0,*55
1507835033.91,19180,12.5,73936.5,-1.47,-8.85,-10.63,0,*62
1507835035.17,19181,12.5,73940.3,-1.47,-10.15,-11.77,0,*57
1507835036.45,19182,12.5,73938.3,-1.47,-12.15,-12.07,0,*52
1507835037.67,19183,12.5,73938.3,-1.45,-13.69,-11.41,0,*5A
1507835038.88,19184,12.5,73938.5,-1.45,-14.33,-10.49,0,*5C
1507835040.09,19185,12.5,73942.5,-1.45,-14.23,-8.97,0,*66
1507835041.32,19186,12.5,73948.8,-1.47,-13.47,-7.83,0,*68
1507835042.55,19187,12.5,73944.5,-1.47,-12.43,-7.23,0,*66
1507835043.79,19188,12.5,73950.3,-1.47,-11.23,-6.59,0,*60
1507835044.98,19189,12.5,73940.5,-1.45,-9.93,-6.35,0,*5B
1507835046.19,19190,12.5,73942.8,-1.45,-8.85,-6.55,0,*53
1507835047.42,19191,12.5,73948.3,-1.47,-8.25,-6.89,0,*5B
1507835048.7,19192,12.5,73942.5,-1.47,-8.11,-7.65,0,*5C
1507835049.92,19193,12.5,73936.8,-1.43,-8.29,-8.37,0,*5A
1507835051.18,19194,12.5,73938.0,-1.45,-9.15,-9.11,0,*50
1507835052.41,19195,12.5,73940.3,-1.45,-10.05,-9.53,0,*6E
1507835053.61,19196,12.5,73944.0,-1.45,-11.15,-9.97,0,*65
1507835054.85,19197,12.5,73958.5,-1.45,-11.97,-10.09,0,*51
1507835056.09,19198,12.5,73954.0,-1.45,-12.71,-10.31,0,*5E
1507835057.33,19199,12.5,73954.8,-1.43,-13.43,-10.31,0,*59
1507835058.63,19200,12.5,73954.8,-1.43,-14.05,-10.41,0,*58
1507835059.87,19201,12.5,73960.0,-1.45,-14.51,-10.45,0,*5A
1507835061.08,19202,12.5,73960.3,-1.45,-14.69,-10.31,0,*51
1507835062.32,19203,12.5,73960.0,-1.45,-14.55,-10.05,0,*58
1507835063.53,19204,12.5,73966.5,-1.45,-14.23,-9.79,0,*6D
1507835064.79,19205,12.5,73966.8,-1.45,-13.61,-9.41,0,*66
1507835065.99,19206,12.5,73962.0,-1.45,-13.15,-9.23,0,*62
1507835067.24,19207,12.5,73964.3,-1.43,-12.65,-8.97,0,*6D
1507835068.45,19208,12.5,73962.3,-1.45,-12.25,-8.85,0,*63
1507835069.7,19209,12.5,73964.0,-1.43,-11.73,-8.63,0,*6C
1507835070.92,19210,12.5,73966.8,-1.43,-11.41,-8.55,0,*60
1507835072.18,19211,12.5,73964.8,-1.45,-11.29,-7.99,0,*66
1507835073.39,19212,12.5,73966.8,-1.45,-10.57,-7.23,0,*6C
1507835074.59,19213,12.5,73970.5,-1.45,-9.75,-6.85,0,*58
1507835075.83,19214,12.5,73976.8,-1.43,-9.57,-6.81,0,*5D
1507835077.05,19215,12.5,73980.0,-1.45,-9.61,-6.73,0,*52
1507835078.3,19216,12.5,73982.0,-1.43,-9.61,-6.39,0,*59
1507835079.54,19217,12.5,73978.5,-1.43,-9.45,-6.09,0,*5D
1507835080.8,19218,12.5,73980.3,-1.43,-8.89,-5.61,0,*5E
1507835082.0,19219,12.5,73986.8,-1.45,-8.21,-5.39,0,*56
1507835083.25,19220,12.5,73990.5,-1.43,-7.49,-5.61,0,*56
1507835084.47,19221,12.5,73986.5,-1.43,-6.69,-6.39,0,*5A
1507835085.75,19222,12.5,73978.3,-1.43,-6.23,-7.61,0,*5B
1507835087.0,19223,12.5,73968.8,-1.43,-5.85,-8.63,0,*58
1507835088.25,19224,12.5,73966.3,-1.43,-5.47,-9.61,0,*52
1507835089.5,19225,12.5,73958.0,-1.43,-5.85,-9.79,0,*54
1507835090.75,19226,12.5,73952.0,-1.43,-6.27,-9.75,0,*50
1507835091.99,19227,12.5,73948.8,-1.43,-6.51,-10.15,0,*6E
1507835093.25,19228,12.5,73950.8,-1.43,-6.93,-10.97,0,*65
1507835094.54,19229,12.5,73952.0,-1.43,-7.73,-11.67,0,*65
1507835095.74,19230,12.5,73966.5,-1.41,-8.67,-12.39,0,*6D
1507835096.97,19231,12.5,73962.0,-1.41,-9.37,-13.23,0,*62
1507835098.2,19232,12.5,73960.5,-1.43,-10.19,-14.37,0,*55
1507835099.47,19233,12.5,73966.8,-1.43,-10.63,-15.29,0,*57
1507835100.74,19234,12.5,73968.8,-1.43,-11.41,-16.31,0,*5B
1507835102.0,19235,12.5,73974.8,-1.45,-13.01,-17.79,0,*57
1507835103.26,19236,12.5,73978.0,-1.43,-14.51,-18.65,0,*52
1507835104.5,19237,12.5,73978.0,-1.43,-15.53,-19.17,0,*54
1507835105.73,19238,12.5,73980.0,-1.43,-15.95,-19.75,0,*55
1507835106.97,19239,12.5,73976.3,-1.39,-16.79,-20.93,0,*5A
1507835108.17,19240,12.5,73974.3,-1.41,-18.11,-22.37,0,*57
1507835109.41,19241,12.5,73976.0,-1.43,-19.95,-23.39,0,*56
1507835110.64,19242,12.5,73976.8,-1.43,-21.13,-22.67,0,*5A
1507835111.88,19243,12.5,73978.8,-1.41,-22.37,-21.87,0,*51
1507835113.14,19244,12.5,73978.3,-1.43,-23.49,-20.63,0,*57
1507835114.4,19245,12.5,73982.3,-1.43,-23.85,-19.03,0,*5A
1507835115.64,19246,12.5,73990.3,-1.45,-23.85,-17.83,0,*59
1507835116.85,19247,12.5,73988.0,-1.45,-23.75,-16.93,0,*57
1507835118.11,19248,12.5,73986.3,-1.43,-22.21,-14.69,0,*59
1507835119.32,19249,12.5,73986.8,-1.45,-20.59,-13.23,0,*5A
1507835120.56,19250,12.5,73986.8,-1.45,-18.89,-12.03,0,*57
1507835121.77,19251,12.5,73984.5,-1.45,-16.89,-10.89,0,*58
1507835123.01,19252,12.5,73980.8,-1.43,-15.25,-10.35,0,*5F
1507835124.25,19253,12.5,73980.3,-1.43,-14.23,-9.93,0,*6D
1507835125.48,19254,12.5,73984.5,-1.45,-13.61,-9.67,0,*66
1507835126.76,19255,12.5,73980.3,-1.43,-12.57,-9.61,0,*63
1507835128.03,19256,12.5,73980.8,-1.43,-11.29,-10.01,0,*54
1507835129.27,19257,12.5,73976.3,-1.45,-11.77,-10.89,0,*58
1507835130.49,19258,12.5,73968.3,-1.45,-12.25,-11.41,0,*56
1507835131.75,19259,12.5,73966.5,-1.45,-12.61,-11.89,0,*53
1507835133.01,19260,12.5,73970.8,-1.43,-12.57,-12.25,0,*5F
1507835134.24,19261,12.5,73968.5,-1.43,-13.11,-14.19,0,*54
1507835135.48,19262,12.5,73970.0,-1.43,-15.29,-16.41,0,*55
1507835136.73,19263,12.5,73976.8,-1.43,-17.03,-17.73,0,*5E
1507835137.95,19264,12.5,73982.5,-1.45,-18.73,-19.17,0,*5B
1507835139.16,19265,12.5,73980.0,-1.45,-20.69,-20.25,0,*51
1507835140.4,19266,12.5,73978.3,-1.41,-21.73,-20.99,0,*5B
1507835141.64,19267,12.5,73982.0,-1.45,-22.41,-21.23,0,*5C
1507835142.93,19268,12.5,73990.8,-1.43,-23.03,-21.23,0,*52
1507835144.16,19269,12.5,73984.3,-1.41,-23.39,-21.27,0,*5C
1507835145.37,19270,12.5,73982.3,-1.45,-23.75,-21.09,0,*54
1507835146.61,19271,12.5,73988.0,-1.45,-23.69,-20.43,0,*57
1507835147.82,19272,12.5,73990.0,-1.45,-23.13,-17.49,0,*57
1507835149.04,19273,12.5,73998.5,-1.45,-19.51,-15.71,0,*50
1507835150.27,19274,12.5,73990.8,-1.43,-17.87,-16.45,0,*50
1507835151.54,19275,12.5,73980.3,-1.45,-17.97,-17.03,0,*55
1507835152.77,19276,12.5,73984.3,-1.43,-19.91,-17.31,0,*59
1507835154.01,19277,12.5,73984.5,-1.45,-19.51,-17.07,0,*57
1507835155.27,19278,12.5,73986.8,-1.43,-21.43,-18.35,0,*58
1507835156.49,19279,12.5,73986.3,-1.45,-22.11,-17.35,0,*54
1507835157.72,19280,12.5,73986.3,-1.43,-22.11,-17.73,0,*56
1507835158.94,19281,12.5,73986.8,-1.45,-25.35,-18.59,0,*57
1507835160.15,19282,12.5,73990.8,-1.45,-26.39,-17.69,0,*57
1507835161.39,19283,12.5,73982.0,-1.45,-25.39,-16.31,0,*59
1507835162.66,19284,12.5,73988.0,-1.43,-23.85,-15.25,0,*5F
1507835163.9,19285,12.5,73982.3,-1.45,-23.99,-15.49,0,*5F
1507835165.17,19286,12.5,73980.3,-1.45,-24.25,-15.01,0,*50
1507835166.4,19287,12.5,73980.0,-1.45,-24.11,-13.69,0,*5E
1507835167.66,19288,12.5,73974.8,-1.45,-22.73,-11.85,0,*53
1507835168.86,19289,12.5,73968.8,-1.45,-20.29,-10.45,0,*52
1507835170.08,19290,12.5,73972.0,-1.45,-19.37,-9.67,0,*67
1507835171.31,19291,12.5,73968.8,-1.45,-16.13,-7.87,0,*6F
1507835172.55,19292,12.5,73974.8,-1.45,-16.17,-7.19,0,*6F
1507835173.78,19293,12.5,73972.0,-1.45,-15.71,-6.27,0,*61
1507835175.03,19294,12.5,73974.3,-1.43,-13.65,-5.11,0,*65
1507835176.23,19295,12.5,73970.3,-1.41,-10.85,-4.05,0,*6F
1507835177.48,19296,12.5,73972.8,-1.45,-7.91,-3.59,0,*55
1507835178.7,19297,12.5,73974.8,-1.43,-6.09,-3.39,0,*54
1507835179.9,19298,12.5,73978.5,-1.45,-5.51,-3.31,0,*5B
1507835181.15,19299,12.5,73974.8,-1.43,-5.31,-3.15,0,*5C
1507835182.36,19300,12.5,73972.8,-1.43,-5.43,-2.91,0,*55
1507835183.61,19301,12.5,73980.8,-1.43,-5.89,-2.87,0,*55
1507835184.89,19302,12.5,73980.0,-1.43,-5.61,-2.55,0,*5F
1507835186.1,19303,12.5,73982.8,-1.43,-4.99,-2.43,0,*5F
1507835187.33,19304,12.5,73980.0,-1.43,-4.33,-2.31,0,*5D
1507835188.59,19305,12.5,73980.5,-1.43,-3.67,-2.31,0,*5A
1507835189.82,19306,12.5,73982.3,-1.43,-3.15,-2.31,0,*5C
1507835191.04,19307,12.5,73982.8,-1.43,-2.87,-2.31,0,*57
1507835192.29,19308,12.5,73976.8,-1.43,-2.67,-2.27,0,*51
1507835193.48,19309,12.5,73972.8,-1.41,-2.43,-2.39,0,*5B
1507835194.73,19310,12.5,73970.0,-1.39,-2.35,-2.51,0,*53
1507835195.95,19311,12.5,73964.8,-1.41,-2.31,-2.63,0,*58
1507835197.2,19312,12.5,73980.3,-1.39,-2.35,-2.75,0,*57
1507835198.42,19313,12.5,73982.8,-1.39,-2.39,-2.95,0,*54
1507835199.6,19314,12.5,73980.5,-1.41,-2.43,-3.19,0,*54
1507835200.88,19315,12.5,73984.3,-1.39,-2.47,-3.59,0,*5A
1507835202.12,19316,12.5,73994.8,-1.39,-2.59,-4.17,0,*5B
1507835203.34,19317,12.5,74000.5,-1.41,-2.87,-5.11,0,*51
1507835204.56,19318,12.5,74008.5,-1.39,-3.03,-5.97,0,*52
1507835205.78,19319,12.5,74004.8,-1.35,-3.35,-7.53,0,*50
1507835207.03,19320,12.5,73984.0,-1.35,-4.01,-9.71,0,*54
1507835208.28,19321,12.5,73976.0,-1.35,-5.23,-12.03,0,*6B
1507835209.54,19322,12.5,73984.0,-1.35,-7.35,-14.61,0,*6F
1507835210.76,19323,12.5,73988.5,-1.35,-9.79,-15.63,0,*6B
1507835212.03,19324,12.5,73994.0,-1.35,-11.41,-15.43,0,*5C
1507835213.3,19325,12.5,73994.8,-1.35,-12.61,-14.75,0,*58
1507835214.54,19326,12.5,73998.3,-1.35,-13.69,-13.55,0,*57
1507835215.8,19327,12.5,73994.3,-1.35,-14.01,-12.03,0,*5D
1507835217.03,19328,12.5,73990.3,-1.35,-13.15,-10.49,0,*5C
1507835218.28,19329,12.5,73986.0,-1.35,-12.57,-9.79,0,*61
1507835219.51,19330,12.5,73990.8,-1.35,-12.29,-9.01,0,*6F
1507835220.76,19331,12.5,73984.8,-1.35,-10.53,-7.39,0,*64
1507835221.98,19332,12.5,73992.0,-1.35,-10.53,-7.87,0,*62
1507835223.2,19333,12.5,73984.8,-1.35,-9.79,-8.59,0,*5F
1507835224.44,19334,12.5,73984.0,-1.35,-9.83,-10.05,0,*6D
1507835225.7,19335,12.5,73982.3,-1.39,-12.53,-9.89,0,*6B
1507835226.95,19336,12.5,73966.8,-1.39,-13.47,-7.57,0,*61
1507835228.19,19337,12.5,73966.0,-1.39,-9.97,-4.93,0,*5D
1507835229.43,19338,12.5,73968.8,-1.31,-6.85,-3.59,0,*57
1507835230.65,19339,12.5,73976.0,-1.35,-5.55,-3.19,0,*58
1507835231.86,19340,12.5,73972.8,-1.35,-4.37,-2.79,0,*54
1507835233.11,19341,12.5,73970.3,-1.31,-3.35,-2.47,0,*59
1507835234.35,19342,12.5,73972.5,-1.31,-2.83,-2.55,0,*55
1507835235.62,19343,12.5,73968.8,-1.35,-2.71,-2.59,0,*51
1507835236.86,19344,12.5,73970.3,-1.35,-2.67,-2.79,0,*53
1507835238.1,19345,12.5,73962.8,-1.35,-2.59,-3.11,0,*50
1507835239.32,19346,12.5,73962.0,-1.31,-2.83,-3.83,0,*5B
1507835240.54,19347,12.5,73970.0,-1.31,-3.31,-4.49,0,*53
1507835241.76,19348,12.5,73958.5,-1.31,-3.83,-5.39,0,*53
1507835243.01,19349,12.5,73952.3,-1.31,-4.61,-5.81,0,*5A
1507835244.22,19350,12.5,73952.8,-1.31,-5.35,-6.01,0,*59
1507835245.49,19351,12.5,73954.5,-1.31,-5.77,-5.69,0,*53
1507835246.72,19352,12.5,73952.5,-1.31,-5.55,-5.55,0,*5F
1507835247.94,19353,12.5,73964.0,-1.29,-6.19,-6.43,0,*58
1507835249.16,19354,12.5,73972.3,-1.31,-8.21,-7.49,0,*58
1507835250.41,19355,12.5,73996.0,-1.29,-11.59,-8.51,0,*61
1507835251.63,19356,12.5,73988.3,-1.29,-14.51,-8.63,0,*6E
1507835252.88,19357,12.5,73976.0,-1.29,-14.97,-7.35,0,*69
1507835254.1,19358,12.5,73970.5,-1.29,-13.69,-5.89,0,*65
1507835255.36,19359,12.5,73956.0,-1.27,-11.23,-4.81,0,*6F
1507835256.56,19360,12.5,73966.5,-1.29,-9.05,-4.09,0,*56
1507835257.8,19361,12.5,73970.3,-1.27,-8.93,-3.67,0,*58
1507835259.0,19362,12.5,73968.3,-1.29,-8.93,-3.19,0,*5C
1507835260.24,19363,12.5,73974.5,-1.27,-7.99,-2.79,0,*51
1507835261.48,19364,12.5,73968.8,-1.27,-6.19,-2.79,0,*5F
1507835262.71,19365,12.5,73964.3,-1.29,-4.57,-2.63,0,*53
1507835263.98,19366,12.5,73962.3,-1.27,-3.63,-2.55,0,*5B
1507835265.2,19367,12.5,73954.8,-1.27,-3.27,-2.43,0,*5D
1507835266.46,19368,12.5,73954.8,-1.27,-3.03,-2.51,0,*57
1507835267.65,19369,12.5,73956.5,-1.29,-2.79,-2.39,0,*5A
1507835268.89,19370,12.5,73964.5,-1.27,-2.67,-2.27,0,*5C
1507835270.13,19371,12.5,73964.5,-1.27,-2.51,-2.27,0,*58
1507835271.38,19372,12.5,73966.8,-1.27,-2.55,-2.39,0,*50
1507835272.6,19373,12.5,73970.8,-1.27,-2.39,-2.31,0,*53
1507835273.82,19374,12.5,73972.8,-1.27,-2.31,-2.31,0,*5C
1507835275.04,19375,12.5,73984.3,-1.27,-2.31,-2.39,0,*55
1507835276.23,19376,12.5,73982.8,-1.25,-2.27,-2.27,0,*5C
1507835277.45,19377,12.5,73976.8,-1.27,-2.27,-2.31,0,*58
1507835278.67,19378,12.5,73980.5,-1.27,-2.19,-2.19,0,*50
1507835279.88,19379,12.5,73982.3,-1.27,-2.27,-2.27,0,*51
1507835281.07,19380,12.5,73980.0,-1.25,-2.27,-2.15,0,*54
1507835282.26,19381,12.5,73974.5,-1.25,-2.27,-2.15,0,*55
1507835283.45,19382,12.5,73980.3,-1.25,-2.27,-2.15,0,*56
1507835284.69,19383,12.5,73974.5,-1.25,-2.03,-2.03,0,*56
1507835285.93,19384,12.5,73980.3,-1.25,-2.03,-2.03,0,*51
1507835287.15,19385,12.5,73980.3,-1.25,-2.11,-2.35,0,*56
1507835288.37,19386,12.5,73968.8,-1.25,-2.15,-2.47,0,*54
1507835289.62,19387,12.5,73960.3,-1.23,-2.35,-2.75,0,*50
1507835290.82,19388,12.5,73956.0,-1.25,-2.59,-3.23,0,*51
1507835292.03,19389,12.5,73958.3,-1.25,-2.99,-3.67,0,*5C
1507835293.24,19390,12.5,73964.8,-1.25,-3.51,-4.17,0,*51
1507835294.44,19391,12.5,73968.0,-1.25,-3.79,-4.25,0,*5B
1507835295.7,19392,12.5,73972.8,-1.23,-4.01,-4.41,0,*54
1507835296.89,19393,12.5,73966.3,-1.25,-4.13,-5.43,0,*53
1507835298.12,19394,12.5,73954.5,-1.25,-4.93,-7.27,0,*5C
1507835299.39,19395,12.5,73952.8,-1.23,-5.69,-9.15,0,*50
1507835300.62,19396,12.5,73958.5,-1.23,-7.83,-11.41,0,*6D
1507835301.81,19397,12.5,73948.5,-1.25,-9.97,-10.53,0,*63
1507835303.02,19398,12.5,73948.5,-1.23,-9.97,-8.63,0,*50
1507835304.25,19399,12.5,73950.3,-1.23,-9.05,-7.19,0,*58
1507835305.47,19400,12.5,73956.3,-1.25,-8.51,-6.89,0,*51
1507835306.68,19401,12.5,73964.3,-1.25,-7.87,-6.97,0,*5B
1507835307.89,19402,12.5,73950.3,-1.23,-8.25,-8.33,0,*59
1507835309.14,19403,12.5,73940.8,-1.23,-9.41,-9.05,0,*5F